Change the Weather History Date:

Saturday, May 10, 2014

  Actual Average Record
Temperature  
Mean Temperature 69 °F -  
Max Temperature 86 °F 82 °F 91 °F (2004)
Min Temperature 52 °F 54 °F 48 °F (2005)
Cooling Degree Days 4    
Growing Degree Days 19 (Base 50)    
Moisture  
Dew Point 17 °F    
Average Humidity 14    
Maximum Humidity 25    
Minimum Humidity 7    
Precipitation  
Precipitation 0.00 in - - ()
Sea Level Pressure  
Sea Level Pressure 29.91 in    
Wind  
Wind Speed 10 mph (WSW)    
Max Wind Speed 23 mph    
Max Gust Speed 38 mph    
Visibility 10 miles    
Events      
Averages and records for this station are not official NWS values.
T = Trace of Precipitation, MM = Missing Value Source: NWS Daily Summary

Daily Weather History Graph

Daily Weather History Graph

Search for Another Location

Airport or City:

Trip Planner

Search our weather history database for the weather conditions in past years. The results will help you decide how hot, cold, wet, or windy it might be!

Date:

Astronomy

May. 10, 2014 Rise Set
Actual Time 6:13 AM MDT 7:55 PM MDT
Civil Twilight 5:46 AM MDT 8:21 PM MDT
Nautical Twilight 5:14 AM MDT 8:54 PM MDT
Astronomical Twilight 4:40 AM MDT 9:27 PM MDT
Moon 4:07 PM MDT (5/10) 3:32 AM MDT (5/10)
Length of Visible Light 14h 35m
Length of Day
13h 41m
Waxing Gibbous, 82% of the Moon is Illuminated
May 10
Waxing Gibbous
May 14
Full
May 21
Last Quarter
May 28
New
Jun 5
First Quarter

Hourly Weather History & Observations

Time (MDT) Temp. Dew Point Humidity Pressure Visibility Wind Dir Wind Speed Gust Speed Precip Events Conditions
12:15 AM 56.1 °F 9.5 °F 16% 29.99 in 10.0 mi WSW 5.8 mph - N/A   Clear
12:35 AM 57.7 °F 10.8 °F 16% 29.98 in 10.0 mi West 4.6 mph - N/A   Clear
12:55 AM 56.5 °F 11.1 °F 17% 29.99 in 10.0 mi Calm Calm - N/A   Clear
1:15 AM 55.0 °F 11.5 °F 18% 29.99 in 10.0 mi Calm Calm - N/A   Clear
1:35 AM 56.5 °F 11.7 °F 17% 29.98 in 10.0 mi SSW 5.8 mph - N/A   Clear
1:55 AM 54.7 °F 11.5 °F 18% 29.98 in 10.0 mi West 6.9 mph - N/A   Clear
2:15 AM 54.0 °F 11.8 °F 19% 29.97 in 10.0 mi WNW 6.9 mph - N/A   Clear
2:35 AM 54.9 °F 13.1 °F 19% 29.97 in 10.0 mi West 8.1 mph - N/A   Clear
2:55 AM 54.3 °F 14.0 °F 20% 29.96 in 10.0 mi West 8.1 mph - N/A   Clear
3:15 AM 54.1 °F 14.2 °F 21% 29.97 in 10.0 mi West 8.1 mph - N/A   Clear
3:35 AM 53.4 °F 14.7 °F 22% 29.98 in 10.0 mi West 8.1 mph - N/A   Clear
3:55 AM 53.8 °F 15.3 °F 22% 29.98 in 10.0 mi West 9.2 mph - N/A   Clear
4:15 AM 54.1 °F 15.4 °F 22% 29.98 in 10.0 mi West 9.2 mph - N/A   Clear
4:35 AM 52.9 °F 15.6 °F 23% 29.98 in 10.0 mi West 6.9 mph - N/A   Clear
4:55 AM 53.1 °F 16.5 °F 24% 29.98 in 10.0 mi West 9.2 mph - N/A   Clear
5:15 AM 52.2 °F 16.7 °F 25% 29.98 in 10.0 mi WSW 6.9 mph - N/A   Clear
5:35 AM 52.3 °F 16.7 °F 24% 29.98 in 10.0 mi WSW 9.2 mph - N/A   Clear
5:55 AM 52.9 °F 17.2 °F 25% 29.98 in 10.0 mi WSW 9.2 mph - N/A   Clear
6:15 AM 54.1 °F 17.6 °F 24% 29.98 in 10.0 mi WSW 9.2 mph - N/A   Clear
6:35 AM 52.9 °F 17.6 °F 25% 29.98 in 10.0 mi SW 9.2 mph - N/A   Clear
6:55 AM 56.3 °F 18.3 °F 23% 29.99 in 10.0 mi West 9.2 mph - N/A   Clear
7:15 AM 56.1 °F 18.3 °F 23% 29.99 in 10.0 mi West 9.2 mph - N/A   Clear
7:35 AM 57.7 °F 18.7 °F 22% 29.99 in 10.0 mi West 6.9 mph - N/A   Clear
7:55 AM 60.1 °F 19.0 °F 20% 30.00 in 10.0 mi West 5.8 mph - N/A   Scattered Clouds
8:15 AM 62.1 °F 19.2 °F 19% 30.00 in 10.0 mi WSW 8.1 mph - N/A   Clear
8:35 AM 64.4 °F 19.2 °F 18% 30.00 in 10.0 mi WSW 11.5 mph - N/A   Clear
8:55 AM 65.8 °F 19.2 °F 17% 30.00 in 10.0 mi WSW 13.8 mph - N/A   Clear
9:15 AM 67.8 °F 19.0 °F 16% 30.00 in 10.0 mi WSW 10.4 mph - N/A   Clear
9:35 AM 70.2 °F 20.1 °F 15% 30.00 in 10.0 mi WSW 13.8 mph - N/A   Clear
9:55 AM 71.2 °F 20.5 °F 15% 30.00 in 10.0 mi WSW 11.5 mph - N/A   Clear
10:15 AM 72.5 °F 21.0 °F 14% 29.99 in 10.0 mi WSW 11.5 mph 17.3 mph N/A   Clear
10:35 AM 74.3 °F 21.6 °F 14% 29.99 in 10.0 mi West 16.1 mph 19.6 mph N/A   Clear
10:55 AM 74.1 °F 21.4 °F 14% 29.99 in 10.0 mi West 11.5 mph 21.9 mph N/A   Clear
11:15 AM 76.3 °F 21.6 °F 13% 29.98 in 10.0 mi West 17.3 mph 21.9 mph N/A   Clear
11:35 AM 75.9 °F 21.7 °F 13% 29.98 in 10.0 mi WSW 13.8 mph 20.7 mph N/A   Clear
11:55 AM 76.3 °F 21.2 °F 13% 29.96 in 10.0 mi WSW 17.3 mph 21.9 mph N/A   Clear
12:15 PM 77.4 °F 21.2 °F 12% 29.95 in 10.0 mi West 12.7 mph 19.6 mph N/A   Clear
12:35 PM 78.1 °F 21.2 °F 12% 29.95 in 10.0 mi WSW 12.7 mph 20.7 mph N/A   Clear
12:55 PM 79.2 °F 21.6 °F 12% 29.94 in 10.0 mi WSW 19.6 mph 24.2 mph N/A   Clear
1:15 PM 80.1 °F 21.7 °F 12% 29.92 in 10.0 mi SW 12.7 mph 23.0 mph N/A   Clear
1:35 PM 80.8 °F 21.7 °F 11% 29.91 in 10.0 mi WSW 9.2 mph 16.1 mph N/A   Clear
1:55 PM 81.5 °F 20.1 °F 10% 29.90 in 10.0 mi SW 16.1 mph 25.3 mph N/A   Clear
2:15 PM 82.4 °F 19.8 °F 10% 29.89 in 10.0 mi SSW 13.8 mph 27.6 mph N/A   Clear
2:35 PM 82.8 °F 19.4 °F 10% 29.88 in 10.0 mi WSW 17.3 mph 21.9 mph N/A   Clear
2:55 PM 83.8 °F 18.5 °F 9% 29.87 in 10.0 mi SW 12.7 mph 25.3 mph N/A   Clear
3:15 PM 84.4 °F 18.5 °F 9% 29.86 in 10.0 mi WSW 21.9 mph 26.5 mph N/A   Clear
3:35 PM 84.6 °F 18.3 °F 9% 29.85 in 10.0 mi SW 23.0 mph 28.8 mph N/A   Clear
3:55 PM 84.9 °F 17.6 °F 8% 29.84 in 10.0 mi WSW 16.1 mph 24.2 mph N/A   Clear
4:15 PM 85.5 °F 16.9 °F 8% 29.83 in 10.0 mi WSW 19.6 mph 25.3 mph N/A   Clear
4:35 PM 85.3 °F 16.0 °F 8% 29.82 in 10.0 mi SW 15.0 mph 31.1 mph N/A   Clear
4:55 PM 85.6 °F 15.3 °F 7% 29.81 in 10.0 mi WSW 19.6 mph 27.6 mph N/A   Clear
5:15 PM 86.0 °F 13.8 °F 7% 29.80 in 10.0 mi WSW 21.9 mph 28.8 mph N/A   Clear
5:35 PM 86.0 °F 13.8 °F 7% 29.80 in 10.0 mi WSW 18.4 mph 29.9 mph N/A   Clear
5:55 PM 86.2 °F 14.9 °F 7% 29.79 in 10.0 mi WSW 23.0 mph 38.0 mph N/A   Clear
6:15 PM 85.3 °F 15.8 °F 8% 29.79 in 10.0 mi West 19.6 mph 35.7 mph N/A   Clear
6:35 PM 84.7 °F 15.4 °F 8% 29.78 in 10.0 mi West 23.0 mph 31.1 mph N/A   Clear
6:55 PM 83.8 °F 15.4 °F 8% 29.78 in 10.0 mi WSW 17.3 mph 26.5 mph N/A   Clear
7:15 PM 83.3 °F 14.7 °F 8% 29.78 in 10.0 mi WSW 17.3 mph 25.3 mph N/A   Clear
7:55 PM 81.0 °F 15.4 °F 9% 29.79 in 10.0 mi WSW 19.6 mph 24.2 mph N/A   Clear
8:15 PM 79.5 °F 15.4 °F 9% 29.79 in 10.0 mi WSW 12.7 mph - N/A   Clear
8:35 PM 78.3 °F 15.1 °F 9% 29.79 in 10.0 mi SW 13.8 mph - N/A   Clear
8:55 PM 76.6 °F 15.4 °F 10% 29.80 in 10.0 mi SW 11.5 mph - N/A   Clear
9:15 PM 76.1 °F 15.3 °F 10% 29.80 in 10.0 mi SW 12.7 mph - N/A   Clear
9:35 PM 75.2 °F 15.1 °F 10% 29.80 in 10.0 mi SW 10.4 mph - N/A   Clear
9:55 PM 73.6 °F 14.9 °F 11% 29.80 in 10.0 mi SW 10.4 mph - N/A   Clear
10:15 PM 71.4 °F 14.7 °F 11% 29.81 in 10.0 mi WSW 9.2 mph - N/A   Clear
10:35 PM 71.4 °F 14.9 °F 12% 29.82 in 10.0 mi WSW 10.4 mph - N/A   Clear
10:55 PM 70.7 °F 15.3 °F 12% 29.82 in 10.0 mi WSW 8.1 mph - N/A   Clear
11:15 PM 68.4 °F 14.9 °F 13% 29.83 in 10.0 mi SW 4.6 mph - N/A   Clear
11:35 PM 68.5 °F 14.5 °F 13% 29.82 in 10.0 mi WSW 6.9 mph - N/A   Clear
11:55 PM 68.2 °F 14.5 °F 13% 29.82 in 10.0 mi WSW 10.4 mph - N/A   Clear